Starlink 30771

operational
NORAD ID: 58169 Int'l Des: 2023-166 Owner: SPXS Country: US Constellation: starlink
LEOCIRCULAR

关于 Starlink 30771

正在加载描述...

实时位置

正在加载3D地球...

即将过境

高度历史

Altitude vs Time

uPlot chart will show altitude changes over time

两行轨道根数

1 58169U 23166V 25352.13094291 -.00001846 00000-0 -50233-4 0 9991
2 58169 53.1595 238.3499 0001253 104.7107 255.4032 15.30194557120697
Epoch: Dec 18, 2025 • Age: 15 hours

当前状态

高度 475.0 km
速度 7.63 km/s
星下点 10.03°N, 50.62°E
发射日期 Oct 29, 2023
运行时间 2.1 years
类型 internet

技术详情

分类 Payload
质量 730.00 kg
干质量 700.00 kg
总质量 730.00 kg
长度 0.30 m
直径 4.10 m
跨度 29.00 m
形状 Box + pan
制造商 SPXS
平台类型 Starlink V2M
阶段状态 In Orbit
所有者/国家 SPXS/US

大型星座

Loading constellations...